Juan Carlos Paz

Recruteur en chef - Ferro Carril Oeste
20 Févr 2028
Dimanche
Processus

Personnalité

Adaptabilité (7) Ambition (11) Controverse (7) Loyauté (1) Pression (10) Professionnalisme (9) Sportivité (8) Tempérament (12)

Profil

Style d'entraînement Démocratique
Diplôme National B
Détermination 6
Gestion des joueurs 2
Motivation 6
Discipline 6
Satisfaction professionnelle
100%
Fatigue
0%
Rôle Recruteur en chef
Salaire 13.0K p/s
Contrat 14.03.2030

Performance

Comportement Bon
Efficacité de l'entraînement
21%
Développement des joueurs
25%
Prévention des blessures
30%
Mise en place tactique
35%

Événements récents

A évalué un joueur maintenant
A participé à une réunion de recrutement maintenant
A participé à une réunion de recrutement 7j
A évalué un joueur 7j
A évalué un joueur 7j
A évalué un joueur 7j
A évalué un joueur 7j
A participé à une réunion de recrutement 14j

Suivi en cours

103
Joueur Club Statut Capacité Confiance Observé Dernière observation Dernier vote
Franco Villalba Vélez Actif 113 / 116 40% 1 18.02.2028 -
Juan Vegas Zamora Actif 83 / 85 40% 1 18.02.2028 -
Lautaro López Estudiantes Actif 114 / 103 40% 1 16.02.2028 -
Felipe San Juan Gimnasia y Esgrima Actif 128 / 121 40% 1 16.02.2028 -
Abraham Afful BA All Stars Actif 94 / 89 40% 2 14.02.2028 -
Roberto Moreno Cruz Azul Actif 93 / 90 40% 1 14.02.2028 -
Fabián Palomino Ayacucho Actif 103 / 88 40% 1 13.02.2028 -
Joel Abraham Boston River Actif 87 / 96 40% 1 13.02.2028 -
Holomo Mpeli US Bougouni Actif 75 / 82 40% 1 11.02.2028 -
Gaizka Gómez Wanderers Actif 93 / 97 40% 1 10.02.2028 -
Brian Mancini Rampla Juniors Actif 75 / 86 40% 1 10.02.2028 -
Santiago Asprilla Envigado Actif 106 / 104 40% 1 09.02.2028 -
Luciano Peraggini Maipú Actif 99 / 101 40% 1 09.02.2028 -
Facundo Pérez Juventud Actif 87 / 107 40% 1 29.11.2026 -
Damián Adín San Miguel Actif 103 / 118 40% 1 28.11.2026 -
Pedro Souto Temperley Actif 118 / 115 40% 1 27.11.2026 -
Gianluca Pugliese Güemes Actif 129 / 102 40% 1 27.11.2026 -
Gonzalo Aguirre Cienciano Actif 103 / 104 40% 1 26.11.2026 -
Wilfredo Peña Portuguesa Actif 86 / 104 40% 2 22.11.2026 -
Cristian Caicedo Estudiantes de Merida Actif 98 / 88 40% 1 19.11.2026 -
Daniel Monardes San Luis Actif 87 / 83 40% 1 18.11.2026 -
Tomás Porra Barracas Central Actif 124 / 111 40% 1 18.11.2026 -
Aldahir Pérez Tijuana Actif 84 / 119 40% 2 16.11.2026 -
Yuber Quiñónes Deportivo Pereira Actif 113 / 114 40% 1 16.11.2026 -
Santiago Sala Güemes Actif 100 / 116 40% 3 15.11.2026 -
Miguel Pernía Carabobo Actif 112 / 114 40% 1 15.11.2026 -
Johan Madrid Sporting Cristal Actif 98 / 100 40% 2 14.11.2026 -
Francisco Funes Los Andes Actif 83 / 94 40% 1 14.11.2026 -
Víctor Rivero Aragua Actif 112 / 105 40% 1 12.11.2026 -
Brian Calderara Chacarita Juniors Actif 112 / 107 40% 2 11.11.2026 -
Matías Samaniego Talleres Actif 117 / 106 40% 1 11.11.2026 -
Franco Vedoya Central Norte Actif 101 / 98 40% 1 08.11.2026 -
Guillermo Enrique Huracán Actif 128 / 109 40% 1 08.11.2026 -
Ronaldo Peña Deportivo Lara Actif 113 / 109 40% 1 06.11.2026 -
Gastón Moreyra Almirante Brown Actif 111 / 113 40% 1 01.11.2026 -
Maximiliano Rueda Patronato Actif 96 / 115 40% 1 01.11.2026 -
Jefferson Cáceres Melgar Actif 98 / 112 40% 1 31.10.2026 -
Matías Viguet Maipú Actif 106 / 105 40% 1 31.10.2026 -
Ramiro Hernandes Belgrano Actif 120 / 126 40% 1 30.10.2026 -
Juan Velázquez Belgrano Actif 135 / 125 40% 1 27.10.2026 -
Adrián Fernández Racing Club Actif 105 / 118 40% 1 24.10.2026 -
Alejo Montero Newell's Old Boys Actif 123 / 127 40% 1 21.10.2026 -
Mathieu Choinière Los Angeles Football Club Actif 116 / 116 40% 2 20.10.2026 -
Augusto Berrondo Tristán Suárez Actif 104 / 103 40% 1 20.10.2026 -
Kevin González Trujillanos Actif 90 / 92 40% 1 19.10.2026 -
Federico Bisanz Atlanta Actif 125 / 105 40% 1 19.10.2026 -
Maico Quiroz Güemes Actif 103 / 122 40% 1 14.10.2026 -
Emiliano Viveros Argentinos Juniors Actif 130 / 110 40% 1 10.10.2026 -
Guilherme Biro Austin FC Actif 107 / 125 40% 1 10.10.2026 -
Jorge Murrugarra Universitario Actif 129 / 117 40% 1 09.10.2026 -
Diego Valencia Universidad Catolica Actif 108 / 99 40% 1 09.10.2026 -
Manuel Duarte Barracas Central Actif 119 / 117 40% 1 07.10.2026 -
Federico Sena Estudiantes Actif 91 / 104 40% 1 07.10.2026 -
Matías López Guarani Actif 88 / 105 40% 1 04.10.2026 -
Francisco Ginella Albion Actif 101 / 110 40% 1 01.10.2026 -
Marcelo Fernández Libertad Actif 109 / 124 40% 1 29.09.2026 -
Willimger Castillo Deportivo Lara Actif 106 / 88 40% 1 27.09.2026 -
Ángel Figueroa Caracas Actif 77 / 81 40% 1 27.09.2026 -
Luis Olivera Defensores Unidos Actif 118 / 109 40% 1 24.09.2026 -
Bastián Yáñez O'Higgins Actif 122 / 109 40% 1 24.09.2026 -
Juan Ignacio Méndez Instituto Actif 127 / 118 40% 1 23.09.2026 -
Jon Russell CF Montreal Actif 129 / 95 40% 1 23.09.2026 -
Hugo Martínez Libertad Actif 120 / 122 40% 1 20.09.2026 -
Daniel Arcila Leon Actif 120 / 96 40% 1 18.09.2026 -
George Ayine Metropolitanos Actif 88 / 106 40% 1 18.09.2026 -
Cristian Trujillo Deportes Tolima Actif 114 / 123 40% 1 16.09.2026 -
Juan Pablo Barinaga Patronato Actif 97 / 122 40% 1 13.09.2026 -
Facundo Vega Rentistas Actif 101 / 92 40% 1 08.09.2026 -
César Munder Palestino Actif 114 / 108 40% 1 08.09.2026 -
Facundo Castet Colón Actif 96 / 98 40% 1 05.09.2026 -
Fabián Ángel Junior Actif 127 / 121 40% 1 05.09.2026 -
Facundo Waller Huracán Actif 108 / 118 40% 2 03.09.2026 -
Juan Fernando Alfaro Olimpia Actif 100 / 122 40% 1 03.09.2026 -
Dylan Lozano Aguilas Doradas Actif 109 / 106 40% 2 02.09.2026 -
Milton Valenzuela Atlas Actif 102 / 113 40% 1 02.09.2026 -
Facundo Muñoa Boston River Actif 99 / 117 40% 1 01.09.2026 -
Carlos Adrián Sánchez Pachuca Actif 105 / 120 40% 1 31.08.2026 -
Jhon Navia Junior Actif 103 / 107 40% 1 29.08.2026 -
Lautaro Lovazzano Portuguesa Actif 105 / 105 40% 1 29.08.2026 -
Keiver Zúñiga Portuguesa Actif 107 / 90 40% 1 28.08.2026 -
Aldair Gutiérrez Atletico Bucaramanga Actif 117 / 108 40% 1 23.08.2026 -
Juan Camilo Mosquera Atletico Bucaramanga Actif 115 / 111 40% 1 23.08.2026 -
Santiago Costa Albion Actif 112 / 116 40% 2 19.08.2026 -
Mathías Rodríguez Cerrito Actif 117 / 101 40% 1 19.08.2026 -
Ezequiel Olivera Liverpool Montevideo Actif 105 / 109 40% 1 18.08.2026 -
Jáder Quiñónes Once Caldas Actif 110 / 113 40% 1 18.08.2026 -
Carlos Airala Albion Actif 95 / 96 40% 1 17.08.2026 -
Leandro Meza Nacional Actif 96 / 121 40% 1 16.08.2026 -
Esteban Beltrán Jaguares Actif 92 / 99 40% 1 16.08.2026 -
Jonathan Pérez Guadalajara Actif 117 / 118 40% 1 15.08.2026 -
Éwil Murillo Santa Fe Actif 107 / 121 40% 1 15.08.2026 -
Cristian Carbajal Alianza Lima Actif 105 / 123 40% 1 14.08.2026 -
Rodrigo López Pumas UNAM Actif 103 / 112 40% 1 12.08.2026 -
Ariel Muñoz Alianza Atletico Actif 113 / 96 40% 1 11.08.2026 -
Nicolás Castro Toluca Actif 115 / 130 40% 1 11.08.2026 -
Diego Fernández Guarani Actif 106 / 107 40% 1 08.08.2026 -
Santiago Simón Toluca Actif 129 / 124 40% 1 07.08.2026 -
Diego Castillo Real Cartagena Actif 108 / 100 40% 1 07.08.2026 -
Andrés Amaya Fortaleza CEIF Actif 127 / 108 40% 1 04.08.2026 -
Brian González Atenas Actif 101 / 108 40% 1 04.08.2026 -
Ignacio Núñez Union Espanola Actif 88 / 109 40% 1 03.08.2026 -
Richard Prieto Nacional Actif 115 / 121 40% 1 02.08.2026 -
Marco Farfan Tigres Actif 108 / 124 40% 1 02.08.2026 -